User: anonymous   Login
Location: Unspecified
(0.0000°N, 0.0000°E)
Time: 13:45:48
(UTC+00:00)
Language:

Tiangong 1 - Orbit

View from above orbital plane
View from above orbital plane
View from above satellite
View from above satellite

Ground track
Ground track

The orbit data is extracted from the following two-line orbital elements,

1 37820U 11053A   14295.17500006  .00062015  00000-0  48609-3 0  5046
2 37820 042.7699 266.6616 0006954 150.5695 330.4439 15.70661032175984
Epoch (UTC): 22 October 2014 04:12:00
Eccentricity: 0.0006954
inclination: 42.7699°
perigee height: 352 km
apogee height: 361 km
right ascension of ascending node: 266.6616°
argument of perigee: 150.5695°
revolutions per day: 15.70661032
mean anomaly at epoch: 330.4439°
orbit number at epoch: 17598

The dashed part of the orbit path shows where the satellite is in the earth's shadow,  

DLR